[[{"header":{"parameterUnit":"m.s-1","parameterCategory":1,"la1":30.2991,"la2":30.254,"lo1":-89.0895,"lo2":-89.0444,"dx":0.0017,"dy":0.0017,"nx":28,"ny":28,"refTime":"2022-11-28T15:00:00:Z","depth":0,"parameterNumber":2,"parameterNumberName":"U-component_of_WINDS"},"data":[0,0,0,0,0,0,0,0,0,0,0,0,0,0,0,0,0,0,0,0,0,0,0,0,0,0,0,0,0,0,0,0,0,0,0,0,0,0,0,0,0,0,0,0,0,0,0,0,0,0,0,0,0,0,0,0,0,0,-3.0149,-3.015,0,-3.0205,-3.0206,-3.0207,-3.0151,-3.0149,-3.0147,-3.0145,-3.0202,-3.0206,-3.0209,0,0,0,0,0,0,0,0,0,0,0,0,0,-2.9995,-2.9999,-3.0149,-3.015,-3.0151,-3.0205,-3.0206,-3.0207,-3.0151,-3.0149,-3.0146,-3.0144,-3.0201,-3.0205,-3.0209,0,0,0,0,0,0,0,0,0,0,0,0,0,-3.0058,-3.0,-3.0149,-3.013,-3.0129,-3.0205,-3.0206,-3.0207,-3.0152,-3.0149,-3.0145,-3.0142,-3.02,-3.0205,-3.021,-3.0309,0,0,-3.0226,-3.0229,0,0,0,0,0,0,0,0,-3.0055,-3.0064,-3.0132,-3.0131,-3.013,-3.0168,-3.0173,-3.0241,-3.0153,-3.0143,-3.0145,-3.0141,-3.0193,-3.0199,-3.0217,-3.0311,-3.0314,-3.0227,-3.023,-3.0232,-3.0234,0,0,0,0,0,0,0,-3.005,-3.0061,-3.0171,-3.0133,-3.0132,-3.0118,-3.0124,-3.0185,-3.0186,-3.0144,-3.014,-3.0147,-3.0192,-3.0212,-3.0218,-3.0315,-3.0227,-3.0231,-3.0235,-3.0237,-3.0494,-3.0497,0,0,0,0,0,0,-3.0048,-3.0058,-3.017,-3.0173,-3.0083,-3.0124,-3.013,-3.0159,-3.0185,-3.0186,-3.015,-3.0144,-3.0204,-3.0211,-3.0219,-3.0337,-3.0232,-3.0237,-3.024,-3.049,-3.0494,-3.0498,0,0,0,0,0,0,-3.0045,-3.0059,-3.0167,-3.0114,-3.0127,-3.013,-3.0163,-3.0162,-3.0181,-3.019,-3.019,-3.017,-3.0202,-3.0212,-3.0287,-3.0338,-3.024,-3.0245,-3.0486,-3.0491,-3.0496,-3.0573,0,0,0,0,0,0,-3.0041,-3.0058,-3.0095,-3.0116,-3.013,-3.0234,-3.0166,-3.0165,-3.0191,-3.0184,-3.0208,-3.0209,-3.02,-3.0279,-3.0292,-3.0344,-3.0249,-3.0481,-3.0488,-3.0495,-3.0566,-3.058,-3.0593,0,0,0,0,0,-3.0035,-3.0114,-3.0097,-3.0111,-3.0177,-3.0237,-3.0246,-3.0233,-3.0195,-3.0233,-3.0238,-3.0208,-3.0331,-3.0288,-3.0302,-3.0356,-3.0478,-3.0486,-3.0494,-3.056,-3.0578,-3.0593,0,0,0,0,0,0,-3.01,-3.0117,-3.0098,-3.0186,-3.0211,-3.0228,-3.0275,-3.0252,-3.0289,-3.0281,-3.0264,-3.027,-3.035,-3.036,-3.0312,-3.0453,-3.0398,-3.0409,-3.0443,-3.046,-3.0473,-3.0469,-3.0253,0,0,0,0,0,-3.0124,-3.0171,-3.0184,-3.026,-3.0273,-3.0272,-3.0298,-3.0286,-3.0311,-3.0322,-3.0333,-3.0358,-3.0402,-3.0432,-3.0473,-3.0567,-3.0572,-3.0611,-3.0625,-3.0636,-3.0646,-3.0697,-3.0715,-3.0525,-3.0525,-3.0525,0,0,-3.0175,-3.019,-3.0221,-3.0273,-3.0291,-3.0341,-3.0281,-3.0336,-3.0373,-3.033,-3.0402,-3.0411,-3.0438,-3.0524,-3.0562,-3.0535,-3.0699,-3.0646,-3.0655,-3.0659,-3.0707,-3.0725,-3.0741,-3.0531,-3.053,-3.0529,0,0,-3.0293,-3.0309,-3.0375,-3.0394,-3.0422,-3.042,-3.0436,-3.0457,-3.0462,-3.0533,-3.0502,-3.0546,-3.0622,-3.0643,-3.0664,-3.0791,-3.0765,-3.0804,-3.0875,-3.0925,-3.094,-3.0953,-3.0999,-3.1016,-3.0814,-3.0815,-3.0815,0,-3.0353,-3.0426,-3.0411,-3.0469,-3.0493,-3.0456,-3.0523,-3.0542,-3.0582,-3.06,-3.0569,-3.0664,-3.068,-3.077,-3.0801,-3.0819,-3.0837,-3.0802,-3.0939,-3.0952,-3.0964,-3.1008,-3.1025,-3.0819,-3.0819,-3.0818,-3.0818,0,-3.0499,-3.055,-3.06,-3.064,-3.0669,-3.0731,-3.0726,-3.0758,-3.0744,-3.0746,-3.082,-3.0838,-3.0882,-3.0903,-3.0889,-3.0991,-3.0974,-3.0941,-3.0886,-3.0987,-3.1028,-3.1044,-3.0826,-3.0824,-3.0823,-3.0822,0,0,-3.0659,-3.069,-3.0709,-3.0726,-3.0754,-3.0794,-3.0854,-3.0898,-3.0926,-3.0954,-3.1005,-3.1071,-3.1041,-3.1064,-3.1053,-3.1098,-3.1198,-3.106,-3.106,-3.1085,-3.1312,-3.1337,-3.1356,-3.1181,-3.1184,-3.1186,-3.131,0,-3.0779,-3.0883,-3.0872,-3.0972,-3.102,-3.0986,-3.1038,-3.1061,-3.1065,-3.1106,-3.111,-3.1157,-3.1114,-3.1128,-3.117,-3.1177,-3.1243,-3.1168,-3.1228,-3.123,-3.1223,-3.1377,-3.1403,-3.1519,-3.1325,-3.1328,-3.133,0,-3.0932,-3.0967,-3.1071,-3.1093,-3.1112,-3.116,-3.1199,-3.1238,-3.1264,-3.1264,-3.1291,-3.1272,-3.1333,-3.1276,-3.136,-3.1309,-3.1333,-3.134,-3.1344,-3.135,-3.1287,-3.1388,-3.1556,-3.1573,-3.1355,-3.1353,-3.1351,0,-3.1039,-3.1112,-3.1184,-3.12,-3.1227,-3.1261,-3.1274,-3.1296,-3.1323,-3.1357,-3.1375,-3.1416,-3.1438,-3.1471,-3.1464,-3.1423,-3.155,-3.1492,-3.1552,-3.1552,-3.158,-3.1579,-3.1756,-3.1595,-3.1595,-3.1595,-3.1594,0,-3.1174,-3.124,-3.1233,-3.1277,-3.135,-3.1336,-3.1409,-3.1417,-3.1437,-3.1483,-3.1456,-3.15,-3.1488,-3.1531,-3.1526,-3.1597,-3.1607,-3.1609,-3.1607,-3.1612,-3.1612,-3.1627,-3.162,-3.1599,-3.1598,-3.1597,-3.1597,0,-3.1307,-3.1304,-3.1381,-3.14,-3.1406,-3.1459,-3.1475,-3.1517,-3.1519,-3.1577,-3.159,-3.1593,-3.1642,-3.1639,-3.1694,-3.1691,-3.1779,-3.1767,-3.177,-3.1768,-3.1828,-3.1822,-3.2021,-3.2047,-3.187,-3.1871,-3.1873,0,-3.1394,-3.1443,-3.1467,-3.1496,-3.1511,-3.1558,-3.1585,-3.1574,-3.1603,-3.1637,-3.1675,-3.1722,-3.1759,-3.184,-3.1847,-3.189,-3.1879,-3.1946,-3.1885,-3.1889,-3.1881,-3.1878,-3.1884,-3.1958,-3.196,-3.1962,-3.1963,0,-3.1548,-3.1544,-3.1585,-3.1625,-3.1659,-3.169,-3.1719,-3.1744,-3.1735,-3.177,-3.182,-3.1849,-3.1906,-3.1954,-3.1994,-3.2007,-3.1985,-3.1982,-3.1998,-3.2004,-3.2004,-3.2005,-3.1803,-3.1977,-3.1976,-3.1975,-3.1974,-3.1974,-3.1661,-3.1703,-3.1727,-3.1773,-3.1794,-3.1821,-3.1862,-3.1868,-3.191,-3.1956,-3.1946,-3.2003,-3.2028,-3.208,-3.2097,-3.2142,-3.2118,-3.2141,-3.2147,-3.2153,-3.216,-3.1996,-3.2149,-3.2149,-3.2148,-3.2148,-3.2148,0,-3.1814,-3.1828,-3.187,-3.1911,-3.1948,-3.1922,-3.1953,-3.1985,-3.2035,-3.206,-3.2097,-3.2155,-3.2201,-3.2212,-3.2256,-3.229,-3.228,-3.2302,-3.23,-3.2303,-3.2179,-3.2161,-3.2309,-3.2309,-3.2309,-3.2309,-3.2309,-3.2309,-3.1899,-3.197,-3.1969,-3.205,-3.2063,-3.2119,-3.2138,-3.2164,-3.2184,-3.225,-3.2288,-3.2294,-3.2314,-3.2359,-3.24,-3.2402,-3.242,-3.2446,-3.2444,-3.2328,-3.2312,-3.2296,-3.2279,-3.245,-3.245,-3.2564,-3.2565,-3.2566]},{"header":{"parameterUnit":"m.s-1","parameterCategory":1,"la1":30.2991,"la2":30.254,"lo1":-89.0895,"lo2":-89.0444,"dx":0.0017,"dy":0.0017,"nx":28,"ny":28,"refTime":"2022-11-28T15:00:00:Z","depth":0,"parameterNumber":3,"parameterNumberName":"V-component_of_WINDS"},"data":[0,0,0,0,0,0,0,0,0,0,0,0,0,0,0,0,0,0,0,0,0,0,0,0,0,0,0,0,0,0,0,0,0,0,0,0,0,0,0,0,0,0,0,0,0,0,0,0,0,0,0,0,0,0,0,0,0,0,0.9073,0.9074,0,0.9112,0.9113,0.9113,0.9145,0.9146,0.9146,0.9146,0.9184,0.9184,0.9185,0,0,0,0,0,0,0,0,0,0,0,0,0,0.9025,0.9025,0.9073,0.9074,0.9074,0.9112,0.9113,0.9113,0.9145,0.9146,0.9146,0.9147,0.9183,0.9184,0.9185,0,0,0,0,0,0,0,0,0,0,0,0,0,0.9053,0.9026,0.9073,0.9095,0.9097,0.9112,0.9113,0.9114,0.9145,0.9146,0.9146,0.9147,0.9183,0.9184,0.9185,0.9181,0,0,0.9188,0.9189,0,0,0,0,0,0,0,0,0.9051,0.9055,0.9091,0.9093,0.9096,0.9125,0.9109,0.9136,0.9145,0.9127,0.9146,0.9147,0.9163,0.9166,0.9172,0.9183,0.9184,0.9188,0.9189,0.9189,0.919,0,0,0,0,0,0,0,0.9049,0.9053,0.9089,0.9092,0.9095,0.9102,0.9107,0.9115,0.9142,0.9129,0.9131,0.9135,0.9165,0.9171,0.9173,0.9185,0.9188,0.9189,0.919,0.919,0.9196,0.9195,0,0,0,0,0,0,0.9044,0.9051,0.9087,0.909,0.9075,0.9103,0.9108,0.9115,0.9142,0.9146,0.9135,0.9137,0.9169,0.9172,0.9175,0.9173,0.9189,0.919,0.9191,0.9196,0.9196,0.9195,0,0,0,0,0,0,0.9043,0.9047,0.9086,0.9071,0.9077,0.9103,0.9111,0.9115,0.9122,0.9147,0.9151,0.9137,0.917,0.9173,0.918,0.9175,0.9191,0.9192,0.9197,0.9196,0.9195,0.9169,0,0,0,0,0,0,0.9041,0.9047,0.9045,0.9071,0.9077,0.9091,0.911,0.9116,0.9124,0.9127,0.9149,0.9154,0.917,0.9178,0.9181,0.9176,0.9192,0.9197,0.9196,0.9196,0.917,0.9167,0.9165,0,0,0,0,0,0.904,0.9035,0.9045,0.9049,0.9077,0.909,0.9094,0.9114,0.9123,0.9122,0.9139,0.9153,0.9175,0.9179,0.9182,0.9178,0.9198,0.9197,0.9196,0.9171,0.9168,0.9165,0,0,0,0,0,0,0.9007,0.9039,0.905,0.9054,0.907,0.9096,0.9095,0.9109,0.9122,0.9124,0.9147,0.9152,0.9156,0.9168,0.9171,0.9176,0.9188,0.9188,0.9169,0.9165,0.9163,0.916,0.9193,0,0,0,0,0,0.9,0.9009,0.9037,0.9037,0.9045,0.9069,0.9075,0.909,0.9106,0.9112,0.9129,0.9143,0.9154,0.916,0.9171,0.9172,0.9178,0.9171,0.9168,0.9166,0.9165,0.9168,0.9165,0.9192,0.9192,0.9192,0,0,0.8986,0.9005,0.9009,0.9031,0.9045,0.9054,0.9074,0.9081,0.9088,0.9113,0.9121,0.9134,0.9152,0.9156,0.9158,0.9165,0.9159,0.9164,0.9162,0.9163,0.9167,0.9164,0.9162,0.9191,0.9191,0.9191,0,0,0.8966,0.8981,0.8984,0.8998,0.9019,0.9035,0.9035,0.906,0.907,0.9078,0.9098,0.9106,0.9123,0.9135,0.9144,0.913,0.9144,0.9133,0.9119,0.9121,0.9119,0.9117,0.9114,0.9112,0.9132,0.9132,0.9132,0,0.8946,0.8961,0.8983,0.8991,0.9001,0.9025,0.9029,0.9041,0.9063,0.9069,0.9077,0.91,0.9113,0.9122,0.9119,0.9124,0.9126,0.913,0.9118,0.9116,0.9115,0.9112,0.911,0.9131,0.9131,0.9131,0.9131,0,0.8936,0.8945,0.8945,0.8969,0.8978,0.8983,0.9007,0.9014,0.9028,0.9043,0.9052,0.907,0.9085,0.9088,0.9101,0.9099,0.9102,0.9113,0.9126,0.9111,0.9108,0.9107,0.9129,0.9129,0.9129,0.913,0,0,0.8895,0.8932,0.8932,0.8944,0.8969,0.8977,0.8984,0.9,0.9006,0.9021,0.9028,0.9043,0.9054,0.9063,0.9078,0.908,0.907,0.9091,0.9092,0.9087,0.9069,0.9062,0.906,0.9079,0.9079,0.9078,0.9068,0,0.8879,0.8894,0.8916,0.8923,0.8933,0.8957,0.8963,0.898,0.8994,0.9005,0.902,0.9031,0.9044,0.905,0.9053,0.907,0.9066,0.9071,0.9085,0.9086,0.9081,0.9058,0.905,0.9039,0.9067,0.9067,0.9067,0,0.8863,0.8879,0.8888,0.8915,0.892,0.8925,0.8943,0.8952,0.8971,0.8982,0.8993,0.901,0.9018,0.903,0.9042,0.9045,0.9052,0.9061,0.9061,0.9063,0.9076,0.9061,0.9036,0.9035,0.9065,0.9065,0.9066,0,0.8835,0.8858,0.8867,0.8876,0.8906,0.891,0.8922,0.8942,0.8951,0.8966,0.8973,0.8988,0.8997,0.9008,0.9028,0.9034,0.9039,0.9051,0.9048,0.9047,0.9048,0.9048,0.9025,0.9051,0.9051,0.9051,0.9051,0,0.8816,0.882,0.8855,0.886,0.8866,0.8891,0.8896,0.8911,0.8929,0.8938,0.8958,0.8966,0.8992,0.9002,0.9018,0.9026,0.9029,0.9038,0.9043,0.9037,0.9036,0.9043,0.9044,0.9051,0.9051,0.9051,0.9051,0,0.8785,0.8808,0.8819,0.8848,0.8856,0.8859,0.8884,0.889,0.8906,0.8917,0.8921,0.8946,0.896,0.8981,0.9001,0.9011,0.9017,0.9024,0.9011,0.9014,0.901,0.901,0.8991,0.899,0.9016,0.9015,0.9015,0,0.8772,0.8776,0.8806,0.8815,0.8827,0.8839,0.885,0.8874,0.8883,0.8906,0.891,0.8926,0.8939,0.896,0.898,0.8995,0.9003,0.8995,0.9005,0.9,0.9004,0.9004,0.9005,0.8992,0.8992,0.8992,0.8991,0,0.8746,0.8758,0.8772,0.8791,0.8803,0.8819,0.8835,0.884,0.8868,0.8878,0.8893,0.8904,0.8925,0.894,0.8958,0.8971,0.8986,0.8988,0.8988,0.8983,0.8976,0.8981,0.9006,0.8989,0.8989,0.8989,0.8989,0.8989,0.8725,0.8731,0.8754,0.8769,0.8785,0.88,0.8808,0.8826,0.884,0.886,0.8873,0.8887,0.8907,0.8934,0.8945,0.8957,0.8963,0.8963,0.8963,0.8963,0.8962,0.8974,0.896,0.896,0.896,0.896,0.896,0,0.8702,0.8718,0.8732,0.8756,0.8768,0.8783,0.8802,0.8811,0.8824,0.8842,0.8856,0.8874,0.8889,0.8911,0.8928,0.8933,0.894,0.8936,0.8937,0.894,0.8955,0.8953,0.893,0.893,0.893,0.893,0.893,0.893,0.8692,0.8703,0.8718,0.8737,0.8753,0.8769,0.8779,0.8793,0.8808,0.8827,0.8841,0.8855,0.8874,0.8893,0.8908,0.8914,0.892,0.8914,0.8922,0.8936,0.8938,0.8941,0.894,0.8915,0.8915,0.8906,0.8906,0.8906]}]]